Weather Roundup
Issued by NWS

Home | Current Version | Previous Version | Graphics & Text | Print | Product List | Glossary Off
Versions: 1 2 3 4 5 6 7 8 9 10 11 12 13 14 15 16 17 18 19 20 21 22 23 24 25 26 27 28 29 30 31 32 33 34 35 36 37 38 39 40 41 42 43 44 45 46 47 48 49 50

000
NZUS93 KARX 282059
HRRWXR

CURRENT HOURLY OBSERVATIONS ACROSS
MUCH OF THE UPPER MISSISSIPPI VALLEY
NATIONAL WEATHER SERVICE LA CROSSE WI
400 PM CDT FRI AUG 28 2015


...SOUTHEAST MINNESOTA...


CITY           SKY/WX    TMP DP  RH WIND       PRES   REMARKS
ROCHESTER      LGT RAIN  59  57  93 SE13      30.04F FOG
ROCHESTER/MAYO CLOUDY    58  59 100 E7        30.05S
WINONA         RAIN      61  59  94 SE7       30.04F
AUSTIN         LGT RAIN  59  55  88 E17G24    30.00F
ALBERT LEA     LGT RAIN  59  57  94 E15G24    29.99F
DODGE CENTER   LGT RAIN  61  57  88 SE9G17    30.03S
PRESTON        RAIN      57  55  95 SE13      30.07F
OWATONNA       PTSUNNY   66  59  77 SE17      30.00F
FARIBAULT      MOSUNNY   68  61  77 SE18G24   30.01S
$$

...ELSEWHERE IN MINNESOTA...


CITY           SKY/WX    TMP DP  RH WIND       PRES   REMARKS
MINNEAPOLIS    PTSUNNY   74  61  63 SE17      30.00R
INTNL FALLS    MOSUNNY   79  67  66 W6        29.86R
DULUTH         MOSUNNY   78  64  61 SW16      29.94F
RED WING       PTSUNNY   72  61  68 SE12      30.01S
REDWOOD FALLS  PTSUNNY   72  62  71 SE9G17    29.98S
MANKATO        PTSUNNY   68  57  68 SE17      29.99R
WORTHINGTON    CLOUDY    64  57  77 E17       29.96R
FAIRMONT       CLOUDY    64  55  72 E22       29.93F
$$

...SOUTHWEST WISCONSIN...


CITY           SKY/WX    TMP DP  RH WIND       PRES   REMARKS
LA CROSSE      HVY RAIN  60  58  92 CALM      30.05F FOG
PRAIRIE DU CHI RAIN      63  60  90 SE9G16    30.02R
BOSCOBEL       RAIN      64  61  90 CALM      30.05S FOG
LONE ROCK      NOT AVBL
PLATTEVILLE    CLOUDY    64  63  97 E8        30.07F
FORT MC COY    RAIN      62  59  90 E3        30.05R
VIROQUA        CLOUDY    61  61 100 CALM      30.05R
WIS DELLS      RAIN      64  61  90 SE3       30.09F
$$

...ELSEWHERE IN WISCONSIN...


CITY           SKY/WX    TMP DP  RH WIND       PRES   REMARKS
MILWAUKEE      CLOUDY    71  61  70 SE6       30.09F
MADISON        LGT RAIN  66  63  90 N3        30.08F
GREEN BAY      CLOUDY    69  62  78 SW5       30.08F
EAU CLAIRE     CLOUDY    68  65  90 SW13      30.02R
BLACK RVR FLS  RAIN      65  65  99 SW3       30.05R
MEDFORD        LGT RAIN  63  63  98 S9        30.04F
WAUSAU         LGT RAIN  65  62  90 S8        30.06F
WIS RAPIDS     LGT RAIN  64  60  87 SE5       30.08F
MARSHFIELD     RAIN      64  60  87 S6        30.06F FOG
RICE LAKE      MOSUNNY   73  62  67 S9        30.04R
$$

...NORTHEAST IOWA...


CITY           SKY/WX    TMP DP  RH WIND       PRES   REMARKS
DECORAH        LGT RAIN  59  59 100 E6        30.03S
MASON CITY     LGT RAIN  58  57  97 E13       29.97F FOG
CHARLES CITY   RAIN      61  61 100 NE10      29.99F
OELWEIN        LGT RAIN  63  61  94 SE14      30.01S
$$

...ELSEWHERE IN IOWA...


CITY           SKY/WX    TMP DP  RH WIND       PRES   REMARKS
DES MOINES     CLOUDY    78  68  71 S17G26    29.84F
IOWA CITY      CLOUDY    70  63  78 SE13      29.98F
FORT DODGE     CLOUDY    63  61  94 E10       29.87F
$$

...NORTHERN ILLINOIS...


CITY           SKY/WX    TMP DP  RH WIND       PRES   REMARKS
CHICAGO-OHARE  CLOUDY    72  59  63 S5        30.08F
CHICAGO-MIDWAY CLOUDY    75  59  57 S6        30.08F
MOLINE         CLOUDY    73  64  73 SE10      30.01F
ROCKFORD       CLOUDY    69  62  78 E5        30.08F
PEORIA         CLOUDY    77  62  59 SE7       30.04F
$$

NOTE: "FAIR" INDICATES FEW OR NO CLOUDS BELOW 12,000 FEET WITH NO
SIGNIFICANT WEATHER AND/OR OBSTRUCTIONS TO VISIBILITY. WIND
SPEEDS ARE IN MILES-PER-HOUR.



USA.gov is the U.S. government's official web portal to all federal, state and local government web resources and services.